EDT,Max TemperatureF,Mean TemperatureF,Min TemperatureF,Max Dew PointF,MeanDew PointF,Min DewpointF,Max Humidity, Mean Humidity, Min Humidity, Max Sea Level PressureIn, Mean Sea Level PressureIn, Min Sea Level PressureIn, Max VisibilityMiles, Mean VisibilityMiles, Min VisibilityMiles, Max Wind SpeedMPH, Mean Wind SpeedMPH, Max Gust SpeedMPH,PrecipitationIn, CloudCover, Events, WindDirDegrees
2013-3-1,38,35,32,34,32,30,100,91,82,30.03,29.98,29.94,10,6,1,10,5,14,0.05,8,Snow,314
2013-3-2,32,30,27,30,24,21,92,84,75,30.12,30.05,30.00,10,6,1,13,7,16,0.01,8,Snow,339
2013-3-3,36,29,21,25,21,17,92,72,51,30.12,30.09,30.07,10,7,1,14,5,21,0.01,6,Snow,303
2013-3-4,44,30,16,26,20,13,92,64,36,30.18,30.09,29.97,10,10,8,13,5,16,0.00,4,,115
2013-3-5,46,38,30,45,36,27,100,78,55,29.95,29.74,29.56,10,4,1,24,9,38,0.48,8,Rain-Snow,165
2013-3-6,32,31,29,28,27,25,92,85,78,30.30,29.97,29.76,10,5,1,20,10,31,0.02,8,Snow,291
2013-3-7,36,33,30,30,28,27,92,81,70,30.40,30.36,30.25,10,8,2,7,2,9,0.00,8,,304
2013-3-8,47,37,27,30,28,25,100,73,45,30.47,30.41,30.36,10,9,6,13,4,16,0.00,2,,62
2013-3-9,61,45,29,37,30,27,85,57,29,30.35,30.21,30.06,10,10,9,13,6,16,0.00,2,,111
2013-3-10,69,59,49,43,33,29,52,38,24,30.05,29.96,29.84,10,10,9,21,8,26,0.06,1,Rain,168
2013-3-11,58,48,37,54,45,33,100,81,62,29.90,29.76,29.68,10,7,2,22,9,31,0.83,8,Rain,217
2013-3-12,48,42,35,33,28,25,85,67,49,30.08,30.01,29.91,10,10,3,17,7,28,0.00,5,,258
2013-3-13,35,30,25,32,22,15,100,76,51,30.38,30.20,30.06,10,7,1,21,9,33,0.01,7,Snow,289
2013-3-14,46,33,20,29,20,15,91,61,31,30.40,30.33,30.23,10,10,8,15,5,21,0.00,2,,240
2013-3-15,60,45,29,41,34,27,92,67,42,30.20,29.99,29.78,10,10,8,13,5,15,0.00,1,,205
2013-3-16,71,58,44,48,45,39,76,60,44,29.98,29.77,29.66,10,9,5,26,12,33,0.04,2,Rain,278
2013-3-17,44,39,33,43,34,32,100,93,85,30.11,30.04,29.93,10,4,2,15,9,20,0.83,8,Rain,45
2013-3-18,54,45,36,54,44,34,100,85,70,29.91,29.73,29.65,10,8,2,23,10,33,0.96,8,Rain-Thunderstorm,222
2013-3-19,48,40,31,36,23,12,96,61,25,30.16,30.04,29.88,10,10,8,21,9,31,0.00,1,,268
2013-3-20,46,34,22,22,16,9,74,53,32,30.15,30.06,29.99,10,10,10,23,10,32,0.00,1,,262
2013-3-21,34,27,19,16,12,9,73,54,35,30.07,30.03,29.99,10,8,1,14,5,20,T,4,Snow,289
2013-3-22,45,30,14,20,16,12,96,64,31,30.12,30.06,30.01,10,10,7,9,2,14,0.00,2,,139
2013-3-23,53,44,35,27,24,19,70,51,32,30.05,29.98,29.84,10,10,10,12,4,18,0.00,4,,73
2013-3-24,44,39,34,38,34,22,100,70,40,29.83,29.53,29.37,10,5,1,21,9,26,0.76,8,Rain,74
2013-3-25,35,33,30,34,29,27,92,84,75,30.00,29.67,29.46,10,4,1,21,11,30,0.03,8,Snow,264
2013-3-26,39,35,31,31,29,25,100,80,59,30.28,30.10,29.98,10,6,2,15,6,23,T,8,Snow,293
2013-3-27,44,36,27,26,24,20,78,60,41,30.36,30.31,30.28,10,10,10,13,5,16,0.00,4,,267
2013-3-28,50,37,23,27,24,21,92,64,36,30.39,30.34,30.31,10,10,9,12,2,16,0.00,1,,314
2013-3-29,57,42,26,38,30,25,92,62,32,30.33,30.28,30.22,10,10,8,13,4,18,0.00,2,,215
2013-3-30,60,44,28,43,34,28,100,69,37,30.25,30.16,29.95,10,5,0,13,4,17,T,2,Fog,157
2013-3-31,59,51,43,48,46,39,100,78,55,29.93,29.85,29.81,10,6,1,15,5,20,0.10,7,Rain,255